Tracking 25372 objects as of 24-Jan-2022
HD Live streaming from Space Station
objects crossing your sky now

BRAZILSAT 1

Track BRAZILSAT 1 now!
BRAZILSAT 1 is classified as:


NORAD ID: 15561
Int'l Code: 1985-015B
Perigee: 35,977.8 km
Apogee: 36,017.6 km
Inclination: 15.0 °
Period: 1,446.5 minutes
Semi major axis: 42368 km
RCS: 2.7147 m2 (large)
Launch date: February 8, 1985
Source: Brazil (BRAZ)
Launch site: FRENCH GUIANA (FRGUI)
aabbcc
Your satellite tracking list
Your tracking list is empty




NASA's NSSDC Master Catalog

Two Line Element Set (TLE):
1 15561U 85015B   22023.55317083  .00000063  00000-0  00000+0 0  9996
2 15561  14.9903 357.2540 0004690 354.2974   3.1713  0.99548613110625
Source of the keplerian elements: AFSPC